sat.trackr.live / text

‹ back to catalog

ONEWEB-0031

NORAD 45431 · 2020-020H

PAYLOAD ACTIVE UNKNOWN

§ Identity

Operator
Country
UK
Launch date
2020-03-21
Launch site
TYMSC
Launch vehicle
Mass (kg)
RCS (m²)

Purposes: comms

External: N2YO · Heavens-Above · Gunter

§ Orbital elements

Epoch: 2026-05-25T03:29:53.318400Z

Period
109.81 min
Inclination
87.8904°
Eccentricity
0.0001605
Mean motion
13.11414616 rev/d
Perigee alt
1,216.5 km
Apogee alt
1,218.9 km
Semi-major
7,595.8 km
B*
-8.3243e-4
RAAN
25.6601°
Arg perigee
80.4575°
Mean anomaly
279.6734°
Rev number
29,963

§ Raw data

ONEWEB-00311 45431U 20020H   26145.14575600 -.00000282  00000+0 -83243-3 0  99932 45431  87.8904  25.6601 0001605  80.4575 279.6734 13.11414616299631

JSON: /api/v1/satellites/45431 · /tle

For live sub-satellite position, see the globe view (requires WebGL).

§ Visibility from observer

Set your observer location to see the next 7 days of passes ≥ 10°. The values pass through the URL so the page stays shareable.

No JS? Fill the form by hand. The geolocation button needs JavaScript.